User: anonymous   Login
Location: ?ejkovice
(49.0137°N, 14.3821°E)
Time: 00:10:27
(UTC+00:00)
Language:

H-2A R/B - Orbit

View from above orbital plane
View from above orbital plane
View from above satellite
View from above satellite

Ground track
Ground track

The orbit data is extracted from the following two-line orbital elements,

1 39771U 14029F   24204.38012827  .00009334  00000-0  71642-3 0  9998
2 39771  98.1218 145.2479 0010384 337.1646  22.9114 15.01978656554074
Epoch (UTC): 22 July 2024 09:07:23
Eccentricity: 0.0010384
inclination: 98.1218°
perigee height: 553 km
apogee height: 568 km
right ascension of ascending node: 145.2479°
argument of perigee: 337.1646°
revolutions per day: 15.01978656
mean anomaly at epoch: 22.9114°
orbit number at epoch: 55407

The dashed part of the orbit path shows where the satellite is in the earth's shadow,  

DLR